TimeCST,TemperatureF,Dew PointF,Humidity,Sea Level PressureIn,VisibilityMPH,Wind Direction,Wind SpeedMPH,Gust SpeedMPH,PrecipitationIn,Events,Conditions,WindDirDegrees,DateUTC
12:15 AM,46.9,34.7,62,30.32,10.0,SSE,5.8,-,N/A,,Clear,150,2012-11-29 06:15:00
12:35 AM,46.8,34.9,63,30.31,10.0,SE,5.8,-,N/A,,Clear,140,2012-11-29 06:35:00
1:15 AM,45.7,36.3,70,30.31,10.0,SSE,8.1,-,N/A,,Clear,160,2012-11-29 07:15:00
1:35 AM,44.8,36.5,73,30.30,10.0,SSE,6.9,-,N/A,,Clear,160,2012-11-29 07:35:00
1:55 AM,44.2,36.5,74,30.31,10.0,South,8.1,-,N/A,,Clear,170,2012-11-29 07:55:00
2:15 AM,43.9,36.1,74,30.31,10.0,South,4.6,-,N/A,,Clear,170,2012-11-29 08:15:00
2:35 AM,43.2,35.8,75,30.31,10.0,South,4.6,-,N/A,,Clear,190,2012-11-29 08:35:00
2:55 AM,42.6,35.8,77,30.31,10.0,South,4.6,-,N/A,,Clear,180,2012-11-29 08:55:00
3:15 AM,41.7,35.6,79,30.30,10.0,South,4.6,-,N/A,,Clear,170,2012-11-29 09:15:00
3:35 AM,41.0,35.8,82,30.30,10.0,South,3.5,-,N/A,,Clear,170,2012-11-29 09:35:00
3:55 AM,40.5,36.0,84,30.29,10.0,Calm,Calm,-,N/A,,Clear,0,2012-11-29 09:55:00
4:15 AM,41.0,36.7,85,30.29,10.0,Calm,Calm,-,N/A,,Clear,0,2012-11-29 10:15:00
4:35 AM,40.8,36.7,85,30.29,10.0,SSE,3.5,-,N/A,,Clear,160,2012-11-29 10:35:00
4:55 AM,40.5,36.7,86,30.29,10.0,South,3.5,-,N/A,,Clear,170,2012-11-29 10:55:00
5:15 AM,40.8,37.2,87,30.30,10.0,Calm,Calm,-,N/A,,Clear,0,2012-11-29 11:15:00
5:35 AM,38.8,36.3,91,30.30,10.0,Calm,Calm,-,N/A,,Clear,0,2012-11-29 11:35:00
5:55 AM,38.7,36.7,93,30.29,10.0,Calm,Calm,-,N/A,,Clear,0,2012-11-29 11:55:00
6:15 AM,39.2,36.9,91,30.30,10.0,Calm,Calm,-,N/A,,Clear,0,2012-11-29 12:15:00
6:35 AM,39.2,36.5,90,30.30,10.0,Calm,Calm,-,N/A,,Clear,0,2012-11-29 12:35:00
6:55 AM,39.7,36.3,88,30.30,10.0,Calm,Calm,-,N/A,,Clear,0,2012-11-29 12:55:00
7:15 AM,40.3,35.6,83,30.30,10.0,Calm,Calm,-,N/A,,Clear,0,2012-11-29 13:15:00
7:35 AM,41.0,35.1,79,30.31,10.0,SSE,3.5,-,N/A,,Clear,150,2012-11-29 13:35:00
7:55 AM,42.6,34.9,74,30.31,10.0,Calm,Calm,-,N/A,,Clear,0,2012-11-29 13:55:00
8:15 AM,44.6,35.6,71,30.31,10.0,Calm,Calm,-,N/A,,Clear,0,2012-11-29 14:15:00
8:35 AM,46.8,36.0,66,30.32,10.0,South,3.5,-,N/A,,Clear,170,2012-11-29 14:35:00
8:55 AM,47.5,35.6,63,30.33,10.0,SSE,4.6,-,N/A,,Clear,160,2012-11-29 14:55:00
9:15 AM,49.1,35.8,60,30.32,10.0,SSE,5.8,-,N/A,,Clear,150,2012-11-29 15:15:00
9:35 AM,50.7,36.9,59,30.33,10.0,South,4.6,-,N/A,,Clear,170,2012-11-29 15:35:00
9:55 AM,51.1,37.9,61,30.33,10.0,SSE,6.9,-,N/A,,Clear,160,2012-11-29 15:55:00
10:15 AM,52.9,40.8,64,30.32,10.0,SSE,8.1,-,N/A,,Clear,150,2012-11-29 16:15:00
10:35 AM,54.5,42.6,64,30.31,10.0,South,8.1,-,N/A,,Clear,170,2012-11-29 16:35:00
10:55 AM,55.6,42.4,61,30.31,10.0,South,9.2,-,N/A,,Clear,170,2012-11-29 16:55:00
11:15 AM,57.0,42.3,58,30.30,10.0,SSE,9.2,-,N/A,,Clear,160,2012-11-29 17:15:00
11:35 AM,58.1,42.6,56,30.28,10.0,SSE,8.1,-,N/A,,Clear,150,2012-11-29 17:35:00
11:55 AM,59.4,42.8,54,30.28,10.0,SSE,9.2,-,N/A,,Clear,160,2012-11-29 17:55:00
12:15 PM,60.3,45.0,57,30.27,10.0,SSE,6.9,-,N/A,,Clear,150,2012-11-29 18:15:00
12:35 PM,61.2,44.8,55,30.26,10.0,SSE,5.8,-,N/A,,Clear,160,2012-11-29 18:35:00
12:55 PM,62.4,44.6,52,30.25,10.0,SW,6.9,-,N/A,,Clear,220,2012-11-29 18:55:00
1:15 PM,62.4,43.7,50,30.23,10.0,SSE,6.9,-,N/A,,Clear,150,2012-11-29 19:15:00
1:35 PM,62.6,43.3,49,30.22,10.0,South,6.9,-,N/A,,Clear,180,2012-11-29 19:35:00
1:55 PM,63.5,44.2,49,30.21,10.0,South,6.9,-,N/A,,Clear,180,2012-11-29 19:55:00
2:15 PM,63.5,44.2,49,30.20,7.0,South,5.8,-,N/A,,Clear,190,2012-11-29 20:15:00
2:35 PM,63.5,44.4,50,30.19,7.0,South,5.8,-,N/A,,Clear,180,2012-11-29 20:35:00
2:55 PM,64.2,45.0,50,30.19,7.0,SSE,9.2,-,N/A,,Clear,160,2012-11-29 20:55:00
3:15 PM,64.6,44.4,48,30.18,5.0,SE,6.9,-,N/A,,Haze,130,2012-11-29 21:15:00
3:35 PM,63.7,45.1,51,30.19,7.0,SSE,6.9,-,N/A,,Clear,160,2012-11-29 21:35:00
3:55 PM,63.5,45.9,53,30.19,7.0,SSE,5.8,-,N/A,,Clear,160,2012-11-29 21:55:00
4:15 PM,62.1,45.9,55,30.19,7.0,SSE,3.5,-,N/A,,Clear,150,2012-11-29 22:15:00
4:35 PM,60.8,46.4,59,30.18,10.0,ESE,3.5,-,N/A,,Clear,120,2012-11-29 22:35:00
4:55 PM,60.4,46.4,60,30.18,10.0,SE,3.5,-,N/A,,Clear,130,2012-11-29 22:55:00
5:15 PM,59.9,46.2,61,30.18,10.0,SE,3.5,-,N/A,,Clear,130,2012-11-29 23:15:00
5:35 PM,59.0,45.9,62,30.18,10.0,Calm,Calm,-,N/A,,Clear,0,2012-11-29 23:35:00
5:55 PM,57.9,46.0,65,30.19,10.0,SE,3.5,-,N/A,,Clear,140,2012-11-29 23:55:00
6:15 PM,57.2,46.0,66,30.19,10.0,Calm,Calm,-,N/A,,Clear,0,2012-11-30 00:15:00
6:35 PM,56.1,45.9,68,30.20,10.0,SSE,3.5,-,N/A,,Clear,160,2012-11-30 00:35:00
6:55 PM,55.8,45.3,68,30.20,10.0,SE,3.5,-,N/A,,Clear,140,2012-11-30 00:55:00
7:15 PM,55.4,45.1,68,30.20,10.0,SE,3.5,-,N/A,,Clear,140,2012-11-30 01:15:00
7:35 PM,55.4,44.8,67,30.20,10.0,SE,3.5,-,N/A,,Clear,140,2012-11-30 01:35:00
7:55 PM,55.4,44.6,67,30.20,10.0,SE,3.5,-,N/A,,Clear,140,2012-11-30 01:55:00
8:15 PM,55.4,44.6,67,30.21,10.0,SE,3.5,-,N/A,,Clear,140,2012-11-30 02:15:00
8:35 PM,54.7,44.6,69,30.20,10.0,SSE,4.6,-,N/A,,Clear,150,2012-11-30 02:35:00
8:55 PM,54.5,44.6,69,30.20,10.0,SSE,4.6,-,N/A,,Clear,150,2012-11-30 02:55:00
9:15 PM,54.7,45.0,70,30.21,10.0,SE,5.8,-,N/A,,Clear,140,2012-11-30 03:15:00
9:35 PM,54.3,45.5,72,30.20,10.0,SSE,9.2,-,N/A,,Clear,160,2012-11-30 03:35:00
9:55 PM,54.5,45.7,72,30.20,10.0,SSE,8.1,-,N/A,,Clear,150,2012-11-30 03:55:00
10:15 PM,54.1,46.2,75,30.20,10.0,SSE,6.9,-,N/A,,Clear,160,2012-11-30 04:15:00
10:35 PM,53.2,46.4,78,30.19,10.0,SSE,8.1,-,N/A,,Clear,160,2012-11-30 04:35:00
10:55 PM,53.1,46.4,78,30.20,10.0,SSE,9.2,-,N/A,,Clear,160,2012-11-30 04:55:00
11:15 PM,52.7,46.6,80,30.20,10.0,South,9.2,-,N/A,,Clear,170,2012-11-30 05:15:00
11:35 PM,51.8,46.9,83,30.20,10.0,SSE,9.2,-,N/A,,Clear,160,2012-11-30 05:35:00
11:55 PM,51.8,47.3,85,30.21,10.0,South,8.1,-,N/A,,Clear,170,2012-11-30 05:55:00